Time,TemperatureF,DewpointF,PressureIn,WindDirection,WindDirectionDegrees,WindSpeedMPH,WindSpeedGustMPH,Humidity,HourlyPrecipIn,Conditions,Clouds,dailyrainin,SoftwareType,DateUTC
2013-06-04 00:00:00,67.9,32.7,29.64,NE,53,0.0,0.0,27,0.00,,---,0.00,VWS V14.00,2013-06-04 06:00:00,
2013-06-04 00:06:00,67.7,31.6,29.63,NE,53,0.0,0.0,26,0.00,,---,0.00,VWS V14.00,2013-06-04 06:06:00,
2013-06-04 00:12:00,67.4,31.4,29.64,North,0,0.0,0.0,26,0.00,,---,0.00,VWS V14.00,2013-06-04 06:12:00,
2013-06-04 00:17:00,67.2,31.2,29.64,NE,53,0.0,0.0,26,0.00,,---,0.00,VWS V14.00,2013-06-04 06:17:00,
2013-06-04 00:22:00,66.9,30.9,29.64,NE,53,0.0,0.0,26,0.00,,---,0.00,VWS V14.00,2013-06-04 06:22:00,
2013-06-04 00:28:00,66.6,30.7,29.63,NE,53,0.0,0.0,26,0.00,,---,0.00,VWS V14.00,2013-06-04 06:28:00,
2013-06-04 00:33:00,66.4,31.4,29.64,NE,53,0.0,0.0,27,0.00,,---,0.00,VWS V14.00,2013-06-04 06:33:00,
2013-06-04 00:38:00,66.0,31.1,29.65,NE,53,0.0,0.0,27,0.00,,---,0.00,VWS V14.00,2013-06-04 06:38:00,
2013-06-04 00:43:00,65.7,30.8,29.65,NE,53,0.0,0.0,27,0.00,,---,0.00,VWS V14.00,2013-06-04 06:43:00,
2013-06-04 00:48:00,65.2,31.3,29.65,NE,53,0.0,0.0,28,0.00,,---,0.00,VWS V14.00,2013-06-04 06:48:00,
2013-06-04 00:53:00,64.9,31.9,29.65,NE,53,0.0,0.0,29,0.00,,---,0.00,VWS V14.00,2013-06-04 06:53:00,
2013-06-04 00:58:00,64.6,31.6,29.64,NE,53,0.0,0.0,29,0.00,,---,0.00,VWS V14.00,2013-06-04 06:58:00,
2013-06-04 01:03:00,64.3,32.2,29.66,NE,53,0.0,0.0,30,0.00,,---,0.00,VWS V14.00,2013-06-04 07:03:00,
2013-06-04 01:08:00,64.0,32.0,29.66,NE,53,0.0,0.0,30,0.00,,---,0.00,VWS V14.00,2013-06-04 07:08:00,
2013-06-04 01:13:00,63.6,30.8,29.66,NE,53,0.0,1.0,29,0.00,,---,0.00,VWS V14.00,2013-06-04 07:13:00,
2013-06-04 01:18:00,63.2,30.4,29.67,NE,53,0.0,0.0,29,0.00,,---,0.00,VWS V14.00,2013-06-04 07:18:00,
2013-06-04 01:23:00,63.0,31.1,29.67,NE,53,0.0,0.0,30,0.00,,---,0.00,VWS V14.00,2013-06-04 07:23:00,
2013-06-04 01:28:00,62.7,30.8,29.67,NE,53,0.0,0.0,30,0.00,,---,0.00,VWS V14.00,2013-06-04 07:28:00,
2013-06-04 01:33:00,62.5,30.7,29.67,NE,53,0.0,0.0,30,0.00,,---,0.00,VWS V14.00,2013-06-04 07:33:00,
2013-06-04 01:38:00,62.3,31.3,29.68,NE,53,0.0,0.0,31,0.00,,---,0.00,VWS V14.00,2013-06-04 07:38:00,
2013-06-04 01:43:00,62.1,31.1,29.68,NE,53,0.0,0.0,31,0.00,,---,0.00,VWS V14.00,2013-06-04 07:43:00,
2013-06-04 01:48:00,61.8,31.6,29.68,NE,53,0.0,0.0,32,0.00,,---,0.00,VWS V14.00,2013-06-04 07:48:00,
2013-06-04 01:53:00,61.6,31.5,29.68,NE,53,0.0,0.0,32,0.00,,---,0.00,VWS V14.00,2013-06-04 07:53:00,
2013-06-04 01:59:00,61.2,31.9,29.69,NE,53,0.0,0.0,33,0.00,,---,0.00,VWS V14.00,2013-06-04 07:59:00,
2013-06-04 02:04:00,60.9,31.6,29.68,NE,53,0.0,0.0,33,0.00,,---,0.00,VWS V14.00,2013-06-04 08:04:00,
2013-06-04 02:09:00,60.7,32.2,29.68,NE,53,0.0,0.0,34,0.00,,---,0.00,VWS V14.00,2013-06-04 08:09:00,
2013-06-04 02:14:00,60.4,31.9,29.68,NE,53,0.0,0.0,34,0.00,,---,0.00,VWS V14.00,2013-06-04 08:14:00,
2013-06-04 02:19:00,60.0,33.7,29.68,NE,53,0.0,0.0,37,0.00,,---,0.00,VWS V14.00,2013-06-04 08:19:00,
2013-06-04 02:24:00,59.6,35.3,29.69,NNW,336,0.0,0.0,40,0.00,,---,0.00,VWS V14.00,2013-06-04 08:24:00,
2013-06-04 02:29:00,59.4,36.3,29.70,NNE,29,0.0,0.0,42,0.00,,---,0.00,VWS V14.00,2013-06-04 08:29:00,
2013-06-04 02:34:00,59.4,36.9,29.70,NNE,29,0.0,0.0,43,0.00,,---,0.00,VWS V14.00,2013-06-04 08:34:00,
2013-06-04 02:39:00,59.2,37.9,29.70,NNE,23,0.0,2.0,45,0.00,,---,0.00,VWS V14.00,2013-06-04 08:39:00,
2013-06-04 02:44:00,59.1,38.4,29.70,North,5,1.0,3.0,46,0.00,,---,0.00,VWS V14.00,2013-06-04 08:44:00,
2013-06-04 02:49:00,59.0,38.8,29.70,North,5,0.0,0.0,47,0.00,,---,0.00,VWS V14.00,2013-06-04 08:49:00,
2013-06-04 02:54:00,59.0,39.4,29.71,North,5,0.0,0.0,48,0.00,,---,0.00,VWS V14.00,2013-06-04 08:54:00,
2013-06-04 02:59:00,59.0,40.4,29.71,North,5,0.0,2.0,50,0.00,,---,0.00,VWS V14.00,2013-06-04 08:59:00,
2013-06-04 03:05:00,59.0,41.4,29.70,WNW,286,0.0,1.0,52,0.00,,---,0.00,VWS V14.00,2013-06-04 09:05:00,
2013-06-04 03:10:00,58.7,41.1,29.71,WNW,285,0.0,0.0,52,0.00,,---,0.00,VWS V14.00,2013-06-04 09:10:00,
2013-06-04 03:15:00,58.6,41.0,29.71,WNW,284,0.0,0.0,52,0.00,,---,0.00,VWS V14.00,2013-06-04 09:15:00,
2013-06-04 03:20:00,58.5,41.0,29.71,WNW,286,0.0,0.0,52,0.00,,---,0.00,VWS V14.00,2013-06-04 09:20:00,
2013-06-04 03:25:00,58.3,41.3,29.72,WNW,285,0.0,0.0,53,0.00,,---,0.00,VWS V14.00,2013-06-04 09:25:00,
2013-06-04 03:30:00,58.1,41.1,29.72,WNW,284,0.0,0.0,53,0.00,,---,0.00,VWS V14.00,2013-06-04 09:30:00,
2013-06-04 03:35:00,58.0,41.5,29.73,WNW,285,0.0,0.0,54,0.00,,---,0.00,VWS V14.00,2013-06-04 09:35:00,
2013-06-04 03:40:00,57.8,41.3,29.73,WNW,285,0.0,0.0,54,0.00,,---,0.00,VWS V14.00,2013-06-04 09:40:00,
2013-06-04 03:45:00,57.6,42.0,29.74,WNW,285,0.0,0.0,56,0.00,,---,0.00,VWS V14.00,2013-06-04 09:45:00,
2013-06-04 03:50:00,57.4,41.8,29.74,WNW,284,0.0,2.0,56,0.00,,---,0.00,VWS V14.00,2013-06-04 09:50:00,
2013-06-04 03:55:00,57.2,42.6,29.74,WNW,285,0.0,0.0,58,0.00,,---,0.00,VWS V14.00,2013-06-04 09:55:00,
2013-06-04 04:00:00,57.1,42.9,29.75,WNW,285,0.0,0.0,59,0.00,,---,0.00,VWS V14.00,2013-06-04 10:00:00,
2013-06-04 04:05:00,56.9,43.2,29.75,NNE,24,0.0,1.0,60,0.00,,---,0.00,VWS V14.00,2013-06-04 10:05:00,
2013-06-04 04:10:00,56.8,43.5,29.75,NNE,22,0.0,3.0,61,0.00,,---,0.00,VWS V14.00,2013-06-04 10:10:00,
2013-06-04 04:15:00,56.7,43.8,29.75,NNE,20,0.0,0.0,62,0.00,,---,0.00,VWS V14.00,2013-06-04 10:15:00,
2013-06-04 04:20:00,56.6,44.2,29.76,WNW,300,0.0,0.0,63,0.00,,---,0.00,VWS V14.00,2013-06-04 10:20:00,
2013-06-04 04:25:00,56.5,44.1,29.76,WNW,299,0.0,0.0,63,0.00,,---,0.00,VWS V14.00,2013-06-04 10:25:00,
2013-06-04 04:30:00,56.5,44.1,29.76,WNW,300,0.0,0.0,63,0.00,,---,0.00,VWS V14.00,2013-06-04 10:30:00,
2013-06-04 04:35:00,56.4,44.4,29.78,WNW,300,0.0,1.0,64,0.00,,---,0.00,VWS V14.00,2013-06-04 10:35:00,
2013-06-04 04:40:00,56.4,44.4,29.78,NNW,329,0.0,1.0,64,0.00,,---,0.00,VWS V14.00,2013-06-04 10:40:00,
2013-06-04 04:45:00,56.3,44.7,29.78,NNW,329,0.0,0.0,65,0.00,,---,0.00,VWS V14.00,2013-06-04 10:45:00,
2013-06-04 04:50:00,56.2,44.6,29.78,NNW,329,0.0,0.0,65,0.00,,---,0.00,VWS V14.00,2013-06-04 10:50:00,
2013-06-04 04:55:00,56.2,44.6,29.79,NNE,14,2.0,3.0,65,0.00,,---,0.00,VWS V14.00,2013-06-04 10:55:00,
2013-06-04 05:00:00,56.3,45.5,29.79,NW,325,0.0,0.0,67,0.00,,---,0.00,VWS V14.00,2013-06-04 11:00:00,
2013-06-04 05:05:00,56.4,45.6,29.79,North,355,2.0,2.0,67,0.00,,---,0.00,VWS V14.00,2013-06-04 11:05:00,
2013-06-04 05:10:00,56.5,45.7,29.79,NNE,24,0.0,2.0,67,0.00,,---,0.00,VWS V14.00,2013-06-04 11:10:00,
2013-06-04 05:15:00,56.6,45.8,29.79,NNE,22,0.0,1.0,67,0.00,,---,0.00,VWS V14.00,2013-06-04 11:15:00,
2013-06-04 05:21:00,56.7,45.9,29.79,NE,52,1.0,1.0,67,0.00,,---,0.00,VWS V14.00,2013-06-04 11:21:00,
2013-06-04 05:27:00,56.8,46.4,29.80,ENE,72,1.0,2.0,68,0.00,,---,0.00,VWS V14.00,2013-06-04 11:27:00,
2013-06-04 05:32:00,56.8,46.4,29.80,ENE,72,0.0,1.0,68,0.00,,---,0.00,VWS V14.00,2013-06-04 11:32:00,
2013-06-04 05:37:00,56.8,46.4,29.80,WNW,301,0.0,3.0,68,0.00,,---,0.00,VWS V14.00,2013-06-04 11:37:00,
2013-06-04 05:42:00,56.8,46.4,29.80,NNE,24,0.0,1.0,68,0.00,,---,0.00,VWS V14.00,2013-06-04 11:42:00,
2013-06-04 05:47:00,56.8,46.4,29.81,NNE,24,0.0,0.0,68,0.00,,---,0.00,VWS V14.00,2013-06-04 11:47:00,
2013-06-04 05:52:00,56.7,46.3,29.81,NNE,24,0.0,2.0,68,0.00,,---,0.00,VWS V14.00,2013-06-04 11:52:00,
2013-06-04 05:57:00,56.7,46.3,29.81,NNE,24,0.0,1.0,68,0.00,,---,0.00,VWS V14.00,2013-06-04 11:57:00,
2013-06-04 06:02:00,56.7,46.3,29.83,NNE,24,0.0,1.0,68,0.00,,---,0.00,VWS V14.00,2013-06-04 12:02:00,
2013-06-04 06:07:00,56.6,46.2,29.84,NNE,24,1.0,1.0,68,0.00,,---,0.00,VWS V14.00,2013-06-04 12:07:00,
2013-06-04 06:13:00,56.6,46.2,29.84,North,10,2.0,3.0,68,0.00,,---,0.00,VWS V14.00,2013-06-04 12:13:00,
2013-06-04 06:18:00,56.5,46.1,29.84,North,350,0.0,1.0,68,0.00,,---,0.00,VWS V14.00,2013-06-04 12:18:00,
2013-06-04 06:24:00,56.4,46.0,29.85,NW,321,0.0,1.0,68,0.00,,---,0.00,VWS V14.00,2013-06-04 12:24:00,
2013-06-04 06:29:00,56.3,45.9,29.85,North,355,0.0,1.0,68,0.00,,---,0.00,VWS V14.00,2013-06-04 12:29:00,
2013-06-04 06:34:00,56.2,45.4,29.85,NE,48,0.0,1.0,67,0.00,,---,0.00,VWS V14.00,2013-06-04 12:34:00,
2013-06-04 06:39:00,56.2,45.4,29.85,NE,49,0.0,1.0,67,0.00,,---,0.00,VWS V14.00,2013-06-04 12:39:00,
2013-06-04 06:45:00,56.1,45.3,29.85,NE,49,0.0,0.0,67,0.00,,---,0.00,VWS V14.00,2013-06-04 12:45:00,
2013-06-04 06:50:00,56.1,45.3,29.85,NE,42,0.0,2.0,67,0.00,,---,0.00,VWS V14.00,2013-06-04 12:50:00,
2013-06-04 06:55:00,56.1,45.3,29.85,NE,38,1.0,1.0,67,0.00,,---,0.00,VWS V14.00,2013-06-04 12:55:00,
2013-06-04 07:02:00,56.2,45.4,29.86,North,11,0.0,0.0,67,0.00,,---,0.00,VWS V14.00,2013-06-04 13:02:00,
2013-06-04 07:07:00,56.2,45.8,29.86,NW,323,2.0,3.0,68,0.00,,---,0.00,VWS V14.00,2013-06-04 13:07:00,
2013-06-04 07:12:00,56.2,45.8,29.86,NE,36,0.0,1.0,68,0.00,,---,0.00,VWS V14.00,2013-06-04 13:12:00,
2013-06-04 07:17:00,56.1,45.7,29.86,East,93,0.0,3.0,68,0.00,,---,0.00,VWS V14.00,2013-06-04 13:17:00,
2013-06-04 07:22:00,56.1,45.7,29.86,ENE,58,0.0,0.0,68,0.00,,---,0.00,VWS V14.00,2013-06-04 13:22:00,
2013-06-04 07:27:00,56.1,45.7,29.86,ENE,58,0.0,0.0,68,0.00,,---,0.00,VWS V14.00,2013-06-04 13:27:00,
2013-06-04 07:33:00,56.1,45.7,29.86,NNW,340,0.0,0.0,68,0.00,,---,0.00,VWS V14.00,2013-06-04 13:33:00,
2013-06-04 07:38:00,56.1,45.7,29.86,NNE,33,0.0,1.0,68,0.00,,---,0.00,VWS V14.00,2013-06-04 13:38:00,
2013-06-04 07:44:00,56.1,46.1,29.86,ENE,67,1.0,1.0,69,0.00,,---,0.00,VWS V14.00,2013-06-04 13:44:00,
2013-06-04 07:49:00,56.2,46.2,29.86,ENE,67,2.0,2.0,69,0.00,,---,0.00,VWS V14.00,2013-06-04 13:49:00,
2013-06-04 07:55:00,56.1,46.1,29.86,ENE,67,0.0,0.0,69,0.00,,---,0.00,VWS V14.00,2013-06-04 13:55:00,
2013-06-04 08:00:00,56.0,45.6,29.86,NE,39,0.0,1.0,68,0.00,,---,0.00,VWS V14.00,2013-06-04 14:00:00,
2013-06-04 08:05:00,56.1,46.1,29.87,NE,39,0.0,0.0,69,0.00,,---,0.00,VWS V14.00,2013-06-04 14:05:00,
2013-06-04 08:10:00,56.2,46.2,29.87,East,82,0.0,1.0,69,0.00,,---,0.00,VWS V14.00,2013-06-04 14:10:00,
2013-06-04 08:16:00,56.3,46.3,29.87,East,90,0.0,0.0,69,0.00,,---,0.00,VWS V14.00,2013-06-04 14:16:00,
2013-06-04 08:21:00,56.5,46.5,29.87,East,90,0.0,0.0,69,0.00,,---,0.00,VWS V14.00,2013-06-04 14:21:00,
2013-06-04 08:27:00,56.7,47.0,29.88,East,90,0.0,0.0,70,0.00,,---,0.00,VWS V14.00,2013-06-04 14:27:00,
2013-06-04 08:32:00,57.1,47.4,29.87,East,90,0.0,2.0,70,0.00,,---,0.00,VWS V14.00,2013-06-04 14:32:00,
2013-06-04 08:37:00,57.3,47.6,29.87,East,90,0.0,0.0,70,0.00,,---,0.00,VWS V14.00,2013-06-04 14:37:00,
2013-06-04 08:42:00,57.5,47.4,29.86,East,90,0.0,1.0,69,0.00,,---,0.00,VWS V14.00,2013-06-04 14:42:00,
2013-06-04 08:47:00,58.2,48.8,29.86,East,90,0.0,1.0,71,0.00,,---,0.00,VWS V14.00,2013-06-04 14:47:00,
2013-06-04 08:52:00,58.0,47.5,29.86,East,90,0.0,0.0,68,0.00,,---,0.00,VWS V14.00,2013-06-04 14:52:00,
2013-06-04 08:57:00,57.5,47.0,29.87,East,90,0.0,1.0,68,0.00,,---,0.00,VWS V14.00,2013-06-04 14:57:00,
2013-06-04 09:02:00,57.6,47.9,29.88,East,90,0.0,0.0,70,0.00,,---,0.00,VWS V14.00,2013-06-04 15:02:00,
2013-06-04 09:07:00,58.0,47.9,29.88,East,90,0.0,3.0,69,0.00,,---,0.00,VWS V14.00,2013-06-04 15:07:00,
2013-06-04 09:12:00,58.2,48.5,29.88,NNW,329,0.0,1.0,70,0.00,,---,0.00,VWS V14.00,2013-06-04 15:12:00,
2013-06-04 09:17:00,59.0,49.2,29.86,ENE,61,0.0,1.0,70,0.00,,---,0.00,VWS V14.00,2013-06-04 15:17:00,
2013-06-04 09:22:00,59.2,49.0,29.86,ENE,63,0.0,0.0,69,0.00,,---,0.00,VWS V14.00,2013-06-04 15:22:00,
2013-06-04 09:27:00,59.3,48.4,29.86,ENE,61,0.0,2.0,67,0.00,,---,0.00,VWS V14.00,2013-06-04 15:27:00,
2013-06-04 09:32:00,60.0,48.2,29.86,ENE,59,0.0,0.0,65,0.00,,---,0.00,VWS V14.00,2013-06-04 15:32:00,
2013-06-04 09:37:00,59.7,48.7,29.86,NNE,25,1.0,1.0,67,0.00,,---,0.00,VWS V14.00,2013-06-04 15:37:00,
2013-06-04 09:42:00,60.2,48.8,29.86,NE,44,0.0,1.0,66,0.00,,---,0.00,VWS V14.00,2013-06-04 15:42:00,
2013-06-04 09:47:00,60.3,48.9,29.86,NNE,33,0.0,0.0,66,0.00,,---,0.00,VWS V14.00,2013-06-04 15:47:00,
2013-06-04 09:52:00,61.2,49.3,29.85,North,9,0.0,0.0,65,0.00,,---,0.00,VWS V14.00,2013-06-04 15:52:00,
2013-06-04 09:58:00,61.3,48.2,29.84,NE,56,1.0,2.0,62,0.00,,---,0.00,VWS V14.00,2013-06-04 15:58:00,
2013-06-04 10:03:00,60.7,48.5,29.85,NE,53,0.0,0.0,64,0.00,,---,0.00,VWS V14.00,2013-06-04 16:03:00,
2013-06-04 10:08:00,61.4,48.7,29.86,East,101,0.0,1.0,63,0.00,,---,0.00,VWS V14.00,2013-06-04 16:08:00,
2013-06-04 10:13:00,60.8,48.1,29.85,NW,319,1.0,4.0,63,0.00,,---,0.00,VWS V14.00,2013-06-04 16:13:00,
2013-06-04 10:18:00,61.4,48.3,29.85,East,88,0.0,1.0,62,0.00,,---,0.00,VWS V14.00,2013-06-04 16:18:00,
2013-06-04 10:23:00,61.6,48.9,29.85,NNW,348,0.0,1.0,63,0.00,,---,0.00,VWS V14.00,2013-06-04 16:23:00,
2013-06-04 10:28:00,60.7,48.0,29.86,North,349,1.0,2.0,63,0.00,,---,0.00,VWS V14.00,2013-06-04 16:28:00,
2013-06-04 10:33:00,60.5,48.3,29.86,NNE,33,2.0,3.0,64,0.00,,---,0.00,VWS V14.00,2013-06-04 16:33:00,
2013-06-04 10:38:00,61.8,49.9,29.85,East,84,0.0,2.0,65,0.00,,---,0.00,VWS V14.00,2013-06-04 16:38:00,
2013-06-04 10:43:00,63.7,49.1,29.84,East,83,0.0,2.0,59,0.00,,---,0.00,VWS V14.00,2013-06-04 16:43:00,
2013-06-04 10:48:00,62.4,48.8,29.85,ENE,57,0.0,1.0,61,0.00,,---,0.00,VWS V14.00,2013-06-04 16:48:00,
2013-06-04 10:53:00,62.4,47.9,29.84,West,280,0.0,2.0,59,0.00,,---,0.00,VWS V14.00,2013-06-04 16:53:00,
2013-06-04 10:58:00,61.4,47.0,29.85,NE,39,0.0,0.0,59,0.00,,---,0.00,VWS V14.00,2013-06-04 16:58:00,
2013-06-04 11:03:00,61.2,48.5,29.87,East,92,0.0,1.0,63,0.00,,---,0.00,VWS V14.00,2013-06-04 17:03:00,
2013-06-04 11:08:00,63.0,50.2,29.85,East,91,1.0,2.0,63,0.00,,---,0.00,VWS V14.00,2013-06-04 17:08:00,
2013-06-04 11:13:00,64.1,50.0,29.84,East,87,0.0,1.0,60,0.00,,---,0.00,VWS V14.00,2013-06-04 17:13:00,
2013-06-04 11:18:00,65.6,51.4,29.84,ESE,105,1.0,2.0,60,0.00,,---,0.00,VWS V14.00,2013-06-04 17:18:00,
2013-06-04 11:23:00,64.9,47.9,29.84,ESE,103,0.0,3.0,54,0.00,,---,0.00,VWS V14.00,2013-06-04 17:23:00,
2013-06-04 11:28:00,64.8,48.3,29.83,ESE,107,0.0,1.0,55,0.00,,---,0.00,VWS V14.00,2013-06-04 17:28:00,
2013-06-04 11:33:00,65.3,50.2,29.84,ESE,105,0.0,3.0,58,0.00,,---,0.00,VWS V14.00,2013-06-04 17:33:00,
2013-06-04 11:38:00,66.7,49.0,29.83,SSW,195,0.0,3.0,53,0.00,,---,0.00,VWS V14.00,2013-06-04 17:38:00,
2013-06-04 11:43:00,67.4,50.2,29.82,West,280,0.0,0.0,54,0.00,,---,0.00,VWS V14.00,2013-06-04 17:43:00,
2013-06-04 11:48:00,66.7,49.5,29.82,West,281,1.0,1.0,54,0.00,,---,0.00,VWS V14.00,2013-06-04 17:48:00,
2013-06-04 11:53:00,67.6,51.8,29.82,SE,139,0.0,3.0,57,0.00,,---,0.00,VWS V14.00,2013-06-04 17:53:00,
2013-06-04 11:58:00,67.3,50.1,29.82,NE,34,0.0,2.0,54,0.00,,---,0.00,VWS V14.00,2013-06-04 17:58:00,
2013-06-04 12:03:00,67.1,49.4,29.82,NNE,28,0.0,3.0,53,0.00,,---,0.00,VWS V14.00,2013-06-04 18:03:00,
2013-06-04 12:08:00,66.9,50.7,29.82,South,171,2.0,3.0,56,0.00,,---,0.00,VWS V14.00,2013-06-04 18:08:00,
2013-06-04 12:13:00,67.2,50.5,29.82,ESE,110,0.0,2.0,55,0.00,,---,0.00,VWS V14.00,2013-06-04 18:13:00,
2013-06-04 12:18:00,68.1,49.3,29.82,ESE,105,0.0,1.0,51,0.00,,---,0.00,VWS V14.00,2013-06-04 18:18:00,
2013-06-04 12:23:00,68.4,50.6,29.81,ESE,105,0.0,1.0,53,0.00,,---,0.00,VWS V14.00,2013-06-04 18:23:00,
2013-06-04 12:28:00,68.8,49.4,29.80,ESE,105,0.0,2.0,50,0.00,,---,0.00,VWS V14.00,2013-06-04 18:28:00,
2013-06-04 12:33:00,67.9,49.1,29.81,ESE,105,0.0,1.0,51,0.00,,---,0.00,VWS V14.00,2013-06-04 18:33:00,
2013-06-04 12:38:00,68.1,48.8,29.81,ESE,105,0.0,1.0,50,0.00,,---,0.00,VWS V14.00,2013-06-04 18:38:00,
2013-06-04 12:43:00,67.9,49.1,29.81,ESE,105,1.0,2.0,51,0.00,,---,0.00,VWS V14.00,2013-06-04 18:43:00,
2013-06-04 12:48:00,68.0,49.7,29.80,ESE,105,0.0,2.0,52,0.00,,---,0.00,VWS V14.00,2013-06-04 18:48:00,
2013-06-04 12:53:00,68.3,51.5,29.80,ESE,105,0.0,1.0,55,0.00,,---,0.00,VWS V14.00,2013-06-04 18:53:00,
2013-06-04 12:58:00,69.0,50.1,29.79,ESE,105,1.0,1.0,51,0.00,,---,0.00,VWS V14.00,2013-06-04 18:58:00,
2013-06-04 13:03:00,70.0,53.6,29.81,ESE,105,0.0,3.0,56,0.00,,---,0.00,VWS V14.00,2013-06-04 19:03:00,
2013-06-04 13:08:00,70.3,48.6,29.79,ESE,102,0.0,4.0,46,0.00,,---,0.00,VWS V14.00,2013-06-04 19:08:00,
2013-06-04 13:13:00,69.4,48.9,29.80,ESE,102,0.0,1.0,48,0.00,,---,0.00,VWS V14.00,2013-06-04 19:13:00,
2013-06-04 13:18:00,70.5,51.5,29.80,ESE,102,0.0,1.0,51,0.00,,---,0.00,VWS V14.00,2013-06-04 19:18:00,
2013-06-04 13:23:00,72.3,54.7,29.78,ESE,102,0.0,0.0,54,0.00,,---,0.00,VWS V14.00,2013-06-04 19:23:00,
2013-06-04 13:28:00,72.6,51.8,29.77,North,349,1.0,6.0,48,0.00,,---,0.00,VWS V14.00,2013-06-04 19:28:00,
2013-06-04 13:33:00,72.6,51.2,29.77,NE,53,2.0,3.0,47,0.00,,---,0.00,VWS V14.00,2013-06-04 19:33:00,
2013-06-04 13:38:00,72.1,51.3,29.79,North,351,0.0,2.0,48,0.00,,---,0.00,VWS V14.00,2013-06-04 19:38:00,
2013-06-04 13:43:00,72.7,53.0,29.78,ESE,113,0.0,4.0,50,0.00,,---,0.00,VWS V14.00,2013-06-04 19:43:00,
2013-06-04 13:48:00,72.6,51.8,29.78,SE,136,0.0,2.0,48,0.00,,---,0.00,VWS V14.00,2013-06-04 19:48:00,
2013-06-04 13:54:00,73.4,50.8,29.77,SE,130,1.0,1.0,45,0.00,,---,0.00,VWS V14.00,2013-06-04 19:54:00,
2013-06-04 13:59:00,72.3,49.8,29.79,East,91,2.0,2.0,45,0.00,,---,0.00,VWS V14.00,2013-06-04 19:59:00,
2013-06-04 14:05:00,72.8,50.8,29.78,East,82,0.0,1.0,46,0.00,,---,0.00,VWS V14.00,2013-06-04 20:05:00,
2013-06-04 14:10:00,72.2,50.3,29.79,ENE,61,0.0,1.0,46,0.00,,---,0.00,VWS V14.00,2013-06-04 20:10:00,
2013-06-04 14:15:00,73.2,53.5,29.77,ENE,60,1.0,1.0,50,0.00,,---,0.00,VWS V14.00,2013-06-04 20:15:00,
2013-06-04 14:20:00,72.9,50.3,29.78,NE,56,1.0,1.0,45,0.00,,---,0.00,VWS V14.00,2013-06-04 20:20:00,
2013-06-04 14:25:00,74.2,52.1,29.77,ENE,71,0.0,1.0,46,0.00,,---,0.00,VWS V14.00,2013-06-04 20:25:00,
2013-06-04 14:30:00,74.8,52.1,29.76,ESE,118,0.0,1.0,45,0.00,,---,0.00,VWS V14.00,2013-06-04 20:30:00,
2013-06-04 14:35:00,74.2,51.5,29.77,ESE,117,0.0,1.0,45,0.00,,---,0.00,VWS V14.00,2013-06-04 20:35:00,
2013-06-04 14:40:00,74.0,51.3,29.76,ESE,107,0.0,1.0,45,0.00,,---,0.00,VWS V14.00,2013-06-04 20:40:00,
2013-06-04 14:45:00,74.7,51.4,29.75,East,92,1.0,5.0,44,0.00,,---,0.00,VWS V14.00,2013-06-04 20:45:00,
2013-06-04 14:50:00,74.7,52.6,29.75,SSE,164,0.0,0.0,46,0.00,,---,0.00,VWS V14.00,2013-06-04 20:50:00,
2013-06-04 14:55:00,75.3,53.7,29.75,WSW,253,0.0,0.0,47,0.00,,---,0.00,VWS V14.00,2013-06-04 20:55:00,
2013-06-04 15:00:00,75.8,52.4,29.75,SSE,155,0.0,3.0,44,0.00,,---,0.00,VWS V14.00,2013-06-04 21:00:00,
2013-06-04 15:05:00,75.0,51.0,29.77,South,175,1.0,1.0,43,0.00,,---,0.00,VWS V14.00,2013-06-04 21:05:00,
2013-06-04 15:10:00,74.8,54.4,29.77,SE,143,2.0,2.0,49,0.00,,---,0.00,VWS V14.00,2013-06-04 21:10:00,
2013-06-04 15:15:00,75.3,54.3,29.77,North,10,0.0,1.0,48,0.00,,---,0.00,VWS V14.00,2013-06-04 21:15:00,
2013-06-04 15:20:00,74.8,50.2,29.78,North,350,1.0,4.0,42,0.00,,---,0.00,VWS V14.00,2013-06-04 21:20:00,
2013-06-04 15:26:00,73.2,50.6,29.78,North,350,0.0,1.0,45,0.00,,---,0.00,VWS V14.00,2013-06-04 21:26:00,
2013-06-04 15:32:00,71.9,51.2,29.79,ESE,111,0.0,0.0,48,0.00,,---,0.00,VWS V14.00,2013-06-04 21:32:00,
2013-06-04 15:37:00,72.1,50.8,29.80,ESE,110,0.0,1.0,47,0.00,,---,0.00,VWS V14.00,2013-06-04 21:37:00,
2013-06-04 15:42:00,71.9,50.0,29.79,ESE,110,0.0,0.0,46,0.00,,---,0.00,VWS V14.00,2013-06-04 21:42:00,
2013-06-04 15:47:00,71.7,50.4,29.77,ESE,123,0.0,1.0,47,0.00,,---,0.00,VWS V14.00,2013-06-04 21:47:00,
2013-06-04 15:52:00,71.8,50.5,29.77,ESE,123,0.0,1.0,47,0.00,,---,0.00,VWS V14.00,2013-06-04 21:52:00,
2013-06-04 15:57:00,71.4,49.6,29.78,SSW,192,0.0,0.0,46,0.00,,---,0.00,VWS V14.00,2013-06-04 21:57:00,
2013-06-04 16:02:00,71.3,49.5,29.80,South,191,0.0,1.0,46,0.00,,---,0.00,VWS V14.00,2013-06-04 22:02:00,
2013-06-04 16:07:00,70.5,49.3,29.81,South,191,0.0,0.0,47,0.00,,---,0.00,VWS V14.00,2013-06-04 22:07:00,
2013-06-04 16:13:00,70.9,49.1,29.82,SSW,209,0.0,5.0,46,0.00,,---,0.00,VWS V14.00,2013-06-04 22:13:00,
2013-06-04 16:18:00,70.8,51.3,29.80,SSW,203,0.0,2.0,50,0.00,,---,0.00,VWS V14.00,2013-06-04 22:18:00,
2013-06-04 16:23:00,71.1,52.1,29.79,SSW,196,0.0,1.0,51,0.00,,---,0.00,VWS V14.00,2013-06-04 22:23:00,
2013-06-04 16:28:00,71.5,52.4,29.78,SSE,163,0.0,1.0,51,0.00,,---,0.00,VWS V14.00,2013-06-04 22:28:00,
2013-06-04 16:34:00,71.4,51.8,29.78,SSE,163,0.0,0.0,50,0.00,,---,0.00,VWS V14.00,2013-06-04 22:34:00,
2013-06-04 16:39:00,71.3,51.7,29.79,SSE,163,0.0,0.0,50,0.00,,---,0.00,VWS V14.00,2013-06-04 22:39:00,
2013-06-04 16:45:00,71.7,52.1,29.78,SSE,163,0.0,0.0,50,0.00,,---,0.00,VWS V14.00,2013-06-04 22:45:00,
2013-06-04 16:51:00,72.0,50.7,29.78,SSE,163,0.0,1.0,47,0.00,,---,0.00,VWS V14.00,2013-06-04 22:51:00,
2013-06-04 16:57:00,71.8,49.3,29.78,SSE,163,0.0,0.0,45,0.00,,---,0.00,VWS V14.00,2013-06-04 22:57:00,
2013-06-04 17:02:00,71.3,50.6,29.79,SSE,163,0.0,0.0,48,0.00,,---,0.00,VWS V14.00,2013-06-04 23:02:00,
2013-06-04 17:07:00,71.3,50.0,29.79,ENE,72,1.0,2.0,47,0.00,,---,0.00,VWS V14.00,2013-06-04 23:07:00,
2013-06-04 17:13:00,72.0,50.7,29.79,NE,55,0.0,0.0,47,0.00,,---,0.00,VWS V14.00,2013-06-04 23:13:00,
2013-06-04 17:18:00,72.4,50.5,29.78,NE,55,0.0,0.0,46,0.00,,---,0.00,VWS V14.00,2013-06-04 23:18:00,
2013-06-04 17:23:00,72.8,50.8,29.77,NE,55,0.0,0.0,46,0.00,,---,0.00,VWS V14.00,2013-06-04 23:23:00,
2013-06-04 17:29:00,72.7,49.5,29.76,North,360,0.0,1.0,44,0.00,,---,0.00,VWS V14.00,2013-06-04 23:29:00,
2013-06-04 17:34:00,72.3,50.4,29.76,ENE,74,0.0,0.0,46,0.00,,---,0.00,VWS V14.00,2013-06-04 23:34:00,
2013-06-04 17:39:00,71.9,50.0,29.77,NW,311,0.0,0.0,46,0.00,,---,0.00,VWS V14.00,2013-06-04 23:39:00,
2013-06-04 17:44:00,71.6,49.8,29.77,North,355,0.0,2.0,46,0.00,,---,0.00,VWS V14.00,2013-06-04 23:44:00,
2013-06-04 17:49:00,71.3,49.5,29.78,ENE,69,1.0,1.0,46,0.00,,---,0.00,VWS V14.00,2013-06-04 23:49:00,
2013-06-04 17:54:00,71.3,48.9,29.78,ENE,67,0.0,0.0,45,0.00,,---,0.00,VWS V14.00,2013-06-04 23:54:00,
2013-06-04 18:00:00,71.4,49.0,29.78,NE,34,0.0,3.0,45,0.00,,---,0.00,VWS V14.00,2013-06-05 00:00:00,
2013-06-04 18:05:00,71.6,47.9,29.79,NE,40,0.0,2.0,43,0.00,,---,0.00,VWS V14.00,2013-06-05 00:05:00,
2013-06-04 18:10:00,71.4,49.0,29.79,North,355,0.0,2.0,45,0.00,,---,0.00,VWS V14.00,2013-06-05 00:10:00,
2013-06-04 18:15:00,71.4,48.4,29.80,North,355,0.0,1.0,44,0.00,,---,0.00,VWS V14.00,2013-06-05 00:15:00,
2013-06-04 18:20:00,71.7,49.2,29.78,North,355,0.0,0.0,45,0.00,,---,0.00,VWS V14.00,2013-06-05 00:20:00,
2013-06-04 18:25:00,71.3,49.5,29.78,North,355,0.0,0.0,46,0.00,,---,0.00,VWS V14.00,2013-06-05 00:25:00,
2013-06-04 18:30:00,71.3,49.5,29.78,ENE,77,0.0,0.0,46,0.00,,---,0.00,VWS V14.00,2013-06-05 00:30:00,
2013-06-04 18:35:00,71.0,48.6,29.78,ENE,77,0.0,0.0,45,0.00,,---,0.00,VWS V14.00,2013-06-05 00:35:00,
2013-06-04 18:40:00,70.7,48.3,29.78,ENE,76,0.0,1.0,45,0.00,,---,0.00,VWS V14.00,2013-06-05 00:40:00,
2013-06-04 18:45:00,70.5,49.3,29.78,ENE,78,0.0,0.0,47,0.00,,---,0.00,VWS V14.00,2013-06-05 00:45:00,
2013-06-04 18:50:00,70.5,49.3,29.78,North,355,0.0,1.0,47,0.00,,---,0.00,VWS V14.00,2013-06-05 00:50:00,
2013-06-04 18:55:00,70.3,49.1,29.79,NNW,340,2.0,6.0,47,0.00,,---,0.00,VWS V14.00,2013-06-05 00:55:00,
2013-06-04 19:00:00,70.0,49.4,29.82,NW,323,1.0,5.0,48,0.00,,---,0.00,VWS V14.00,2013-06-05 01:00:00,
2013-06-04 19:05:00,69.8,49.2,29.83,NW,309,0.0,10.0,48,0.00,,---,0.00,VWS V14.00,2013-06-05 01:05:00,
2013-06-04 19:10:00,69.8,49.2,29.83,ENE,57,0.0,3.0,48,0.00,,---,0.00,VWS V14.00,2013-06-05 01:10:00,
2013-06-04 19:15:00,69.7,49.7,29.83,West,279,4.0,6.0,49,0.00,,---,0.00,VWS V14.00,2013-06-05 01:15:00,
2013-06-04 19:20:00,68.8,53.0,29.84,ENE,67,0.0,0.0,57,0.00,,---,0.00,VWS V14.00,2013-06-05 01:20:00,
2013-06-04 19:25:00,66.9,53.5,29.84,NNW,327,0.0,1.0,62,0.00,,---,0.00,VWS V14.00,2013-06-05 01:25:00,
2013-06-04 19:30:00,64.9,52.5,29.84,NNW,327,0.0,1.0,64,0.00,,---,0.00,VWS V14.00,2013-06-05 01:30:00,
2013-06-04 19:35:00,63.8,53.5,29.84,NW,326,0.0,0.0,69,0.00,,---,0.00,VWS V14.00,2013-06-05 01:35:00,
2013-06-04 19:40:00,63.7,54.5,29.84,NNW,327,0.0,0.0,72,0.00,,---,0.00,VWS V14.00,2013-06-05 01:40:00,
2013-06-04 19:45:00,63.4,54.6,29.85,NNW,327,0.0,0.0,73,0.00,,---,0.00,VWS V14.00,2013-06-05 01:45:00,
2013-06-04 19:50:00,63.6,54.4,29.85,NW,326,0.0,0.0,72,0.00,,---,0.00,VWS V14.00,2013-06-05 01:50:00,
2013-06-04 19:55:00,63.7,54.9,29.85,NW,326,0.0,0.0,73,0.00,,---,0.00,VWS V14.00,2013-06-05 01:55:00,
2013-06-04 20:00:00,63.6,54.8,29.85,NNW,327,0.0,0.0,73,0.00,,---,0.00,VWS V14.00,2013-06-05 02:00:00,
2013-06-04 20:05:00,63.9,54.7,29.84,NNW,327,0.0,0.0,72,0.00,,---,0.00,VWS V14.00,2013-06-05 02:05:00,
2013-06-04 20:10:00,63.9,53.9,29.84,NW,326,0.0,0.0,70,0.00,,---,0.00,VWS V14.00,2013-06-05 02:10:00,
2013-06-04 20:15:00,64.0,54.4,29.85,NNW,327,0.0,0.0,71,0.00,,---,0.00,VWS V14.00,2013-06-05 02:15:00,
2013-06-04 20:20:00,64.0,54.0,29.86,NNW,327,0.0,1.0,70,0.00,,---,0.00,VWS V14.00,2013-06-05 02:20:00,
2013-06-04 20:25:00,64.0,54.0,29.86,NW,326,0.0,0.0,70,0.00,,---,0.00,VWS V14.00,2013-06-05 02:25:00,
2013-06-04 20:30:00,63.9,53.5,29.87,NW,326,0.0,0.0,69,0.00,,---,0.00,VWS V14.00,2013-06-05 02:30:00,
2013-06-04 20:35:00,63.9,53.1,29.87,NNW,327,0.0,0.0,68,0.00,,---,0.00,VWS V14.00,2013-06-05 02:35:00,
2013-06-04 20:40:00,63.9,53.1,29.88,NNW,329,4.0,4.0,68,0.00,,---,0.00,VWS V14.00,2013-06-05 02:40:00,
2013-06-04 20:45:00,63.8,52.2,29.89,NNW,327,0.0,2.0,66,0.00,,---,0.00,VWS V14.00,2013-06-05 02:45:00,
2013-06-04 20:50:00,63.8,51.4,29.90,North,355,0.0,3.0,64,0.00,,---,0.00,VWS V14.00,2013-06-05 02:50:00,
2013-06-04 20:55:00,63.9,51.5,29.91,North,5,0.0,0.0,64,0.00,,---,0.00,VWS V14.00,2013-06-05 02:55:00,
2013-06-04 21:00:00,64.0,51.2,29.91,West,267,0.0,1.0,63,0.00,,---,0.00,VWS V14.00,2013-06-05 03:00:00,
2013-06-04 21:05:00,64.2,51.4,29.90,NNW,336,0.0,3.0,63,0.00,,---,0.00,VWS V14.00,2013-06-05 03:05:00,
2013-06-04 21:10:00,64.3,51.5,29.92,East,90,0.0,6.0,63,0.00,,---,0.00,VWS V14.00,2013-06-05 03:10:00,
2013-06-04 21:15:00,63.8,50.1,29.93,NE,34,3.0,9.0,61,0.00,,---,0.00,VWS V14.00,2013-06-05 03:15:00,
2013-06-04 21:20:00,62.7,49.1,29.94,ENE,75,4.0,8.0,61,0.00,,---,0.00,VWS V14.00,2013-06-05 03:20:00,
2013-06-04 21:25:00,61.3,48.6,29.97,WNW,299,4.0,11.0,63,0.00,,---,0.00,VWS V14.00,2013-06-05 03:25:00,
2013-06-04 21:30:00,60.3,48.5,29.97,NNW,327,0.0,9.0,65,0.00,,---,0.00,VWS V14.00,2013-06-05 03:30:00,
2013-06-04 21:35:00,59.5,48.5,30.00,NW,322,9.0,14.0,67,0.00,,---,0.00,VWS V14.00,2013-06-05 03:35:00,
2013-06-04 21:40:00,58.9,48.8,30.00,North,355,3.0,10.0,69,0.00,,---,0.00,VWS V14.00,2013-06-05 03:40:00,
2013-06-04 21:45:00,58.1,48.4,30.02,NNW,333,3.0,7.0,70,0.00,,---,0.00,VWS V14.00,2013-06-05 03:45:00,
2013-06-04 21:50:00,57.5,48.2,30.03,NE,51,1.0,6.0,71,0.00,,---,0.00,VWS V14.00,2013-06-05 03:50:00,
2013-06-04 21:55:00,56.9,48.3,30.03,WSW,242,9.0,9.0,73,0.00,,---,0.00,VWS V14.00,2013-06-05 03:55:00,
2013-06-04 22:00:00,56.5,48.3,30.03,North,5,3.0,10.0,74,0.00,,---,0.00,VWS V14.00,2013-06-05 04:00:00,
2013-06-04 22:02:00,56.3,48.1,30.04,NNW,333,3.0,10.0,74,0.00,,---,0.00,VWS V14.00,2013-06-05 04:02:00,
2013-06-04 22:04:00,56.1,48.3,30.05,NNW,336,5.0,11.0,75,0.00,,---,0.00,VWS V14.00,2013-06-05 04:04:00,
2013-06-04 22:05:00,56.0,48.2,30.05,ENE,61,0.0,13.0,75,0.00,,---,0.00,VWS V14.00,2013-06-05 04:05:00,
2013-06-04 22:07:00,55.9,48.1,30.05,North,355,3.0,5.0,75,0.00,,---,0.00,VWS V14.00,2013-06-05 04:07:00,
2013-06-04 22:10:00,55.7,48.3,30.05,NNW,348,7.0,7.0,76,0.00,,---,0.00,VWS V14.00,2013-06-05 04:10:00,
2013-06-04 22:15:00,55.4,48.3,30.05,NE,56,5.0,5.0,77,0.00,,---,0.01,VWS V14.00,2013-06-05 04:15:00,
2013-06-04 22:20:00,55.1,48.4,30.06,NE,49,9.0,9.0,78,0.00,,---,0.01,VWS V14.00,2013-06-05 04:20:00,
2013-06-04 22:25:00,54.8,48.4,30.07,North,5,1.0,3.0,79,0.00,,---,0.01,VWS V14.00,2013-06-05 04:25:00,
2013-06-04 22:30:00,54.5,48.1,30.07,East,88,3.0,8.0,79,0.00,,---,0.01,VWS V14.00,2013-06-05 04:30:00,
2013-06-04 22:35:00,54.2,48.2,30.08,ENE,67,1.0,8.0,80,0.00,,---,0.02,VWS V14.00,2013-06-05 04:35:00,
2013-06-04 22:40:00,54.0,48.3,30.09,NNE,29,3.0,15.0,81,0.18,,---,0.04,VWS V14.00,2013-06-05 04:40:00,
2013-06-04 22:45:00,53.6,47.9,30.09,NW,321,6.0,9.0,81,0.11,,---,0.04,VWS V14.00,2013-06-05 04:45:00,
2013-06-04 22:50:00,53.2,47.9,30.10,NW,325,0.0,2.0,82,0.18,,---,0.06,VWS V14.00,2013-06-05 04:50:00,
2013-06-04 22:55:00,53.0,48.0,30.10,West,273,2.0,5.0,83,0.41,,---,0.08,VWS V14.00,2013-06-05 04:55:00,
2013-06-04 23:00:00,52.6,47.6,30.10,NNE,26,6.0,11.0,83,0.61,,---,0.15,VWS V14.00,2013-06-05 05:00:00,
2013-06-04 23:05:00,52.1,47.4,30.08,NNW,335,3.0,6.0,84,0.51,,---,0.20,VWS V14.00,2013-06-05 05:05:00,
2013-06-04 23:10:00,51.9,47.5,30.09,ESE,109,4.0,7.0,85,0.27,,---,0.22,VWS V14.00,2013-06-05 05:10:00,
2013-06-04 23:15:00,51.8,47.4,30.09,NW,311,2.0,3.0,85,0.11,,---,0.23,VWS V14.00,2013-06-05 05:15:00,
2013-06-04 23:20:00,51.7,47.3,30.10,NW,321,2.0,3.0,85,0.10,,---,0.23,VWS V14.00,2013-06-05 05:20:00,
2013-06-04 23:25:00,51.5,47.5,30.09,NNW,329,3.0,4.0,86,0.09,,---,0.24,VWS V14.00,2013-06-05 05:25:00,
2013-06-04 23:30:00,51.4,47.4,30.09,NE,44,0.0,3.0,86,0.09,,---,0.25,VWS V14.00,2013-06-05 05:30:00,
2013-06-04 23:35:00,51.3,47.3,30.10,North,355,0.0,0.0,86,0.09,,---,0.26,VWS V14.00,2013-06-05 05:35:00,
2013-06-04 23:40:00,51.3,47.3,30.09,NE,38,2.0,3.0,86,0.09,,---,0.26,VWS V14.00,2013-06-05 05:40:00,
2013-06-04 23:45:00,51.2,47.5,30.08,NE,56,0.0,1.0,87,0.08,,---,0.27,VWS V14.00,2013-06-05 05:45:00,
2013-06-04 23:50:00,51.1,47.4,30.09,North,355,0.0,5.0,87,0.13,,---,0.28,VWS V14.00,2013-06-05 05:50:00,
2013-06-04 23:55:00,51.0,47.3,30.09,North,355,0.0,0.0,87,0.12,,---,0.29,VWS V14.00,2013-06-05 05:55:00,